• Join FlightAware (Why Join?)
  • Login
  • US Flag 
09:08AM EDT


 

Airport Tracker/Info


-or-


 

Live Flight TrackerFlight Track Log ✈ BJS542 ✈ 30 Apr 2013 ✈ KORD - KLUK

Flight Track Log - Related Links

Times and Time Zones

All times are in EDT time to prevent confusion due to time zone crossing. See the BJS542 flight status page for this flight to view local times or setup timezone preferences in your user account.

Time Position Orientation Groundspeed Altitude Reporting Facility
EDT Latitude Longitude Course Direction KTS MPH feet Rate Location/Type
12:34PM 41.9500 -87.9000 96° East 150 173 2,300  Level Chicago TRACON
12:35PM 41.9500 -87.8167 90° East 271 312 4,700 1,500 Climbing Chicago TRACON
12:36PM 41.9667 -87.7000 79° East 305 351 5,300 2,520 Climbing Chicago TRACON
12:37PM 42.0000 -87.6167 62° Northeast 320 368 9,800 2,880 Climbing Chicago TRACON
12:40PM 41.9391 -87.2249 96° East  Level FlightAware Approximate
12:40PM 42.0947 -87.3572 64° Northeast 362 417 15,000  Level Chicago Center
12:41PM 42.0861 -87.2078 94° East 391 450 18,900 3,600 Climbing Chicago Center
12:42PM 42.0506 -87.0264 105° East 416 479 22,500 3,420 Climbing Chicago Center
12:43PM 42.0214 -86.8731 104° East 422 486 26,000 2,940 Climbing Chicago Center
12:44PM 41.9917 -86.7214 105° East 422 486 28,600 2,100 Climbing Chicago Center
12:45PM 41.9628 -86.5789 105° East 430 495 30,400 1,140 Climbing Chicago Center
12:46PM 41.9228 -86.3778 105° East 464 534 31,000 240 Climbing Chicago Center
12:47PM 41.8869 -86.1989 105° East 492 566 31,000  Level Chicago Center
12:48PM 41.8514 -86.0200 105° East 497 572 31,000  Level Chicago Center
12:49PM 41.8153 -85.8433 105° East 493 567 31,000  Level Chicago Center
12:50PM 41.7789 -85.6667 105° East 492 566 31,000  Level Chicago Center
12:51PM 41.7156 -85.5131 119° Southeast 476 548 31,000  Level Chicago Center
12:52PM 41.5794 -85.4428 159° South 465 535 31,000  Level Chicago Center
12:53PM 41.4575 -85.3894 162° South 460 529 31,000  Level Chicago Center
12:54PM 41.3381 -85.3394 163° South 455 524 31,000 -120 Level Chicago Center
12:55PM 41.2200 -85.2903 163° South 450 518 30,800 -1,020 Descending Chicago Center
12:56PM 41.0828 -85.2350 163° South 433 498 29,000 -1,800 Descending Chicago Center
12:57PM 40.9736 -85.1797 159° South 426 490 27,200 -2,220 Descending Chicago Center
12:58PM 40.8956 -85.0539 129° Southeast 440 506 24,500 -2,280 Descending Chicago Center
12:59PM 40.8211 -84.9272 128° Southeast 439 505 22,500 -1,740 Descending Chicago Center
01:00PM 40.7475 -84.8042 128° Southeast 432 497 21,000 -780 Descending Chicago Center
01:01PM 40.6761 -84.6844 128° Southeast 421 484 21,000 -480 Level Chicago Center
01:02PM 40.6164 -84.5833 128° Southeast 413 475 20,200 -1,140 Descending Indianapolis Center
01:03PM 40.5447 -84.4611 128° Southeast 418 481 19,000 -840 Descending Indianapolis Center
01:04PM 40.5081 -84.4061 131° Southeast 417 480 19,000 -1,020 Level Indianapolis Center
01:04PM 40.4728 -84.3450 127° Southeast 408 470 18,000 -1,800 Descending Indianapolis Center
01:05PM 40.4322 -84.2803 129° Southeast 406 467 17,200 -1,560 Descending Indianapolis Center
01:05PM 40.4003 -84.2264 128° Southeast 413 475 16,400 -1,800 Descending Indianapolis Center
01:06PM 40.3519 -84.1819 145° Southeast 403 464 15,400 -2,040 Descending Indianapolis Center
01:06PM 40.3039 -84.1703 170° South 386 444 14,300 -2,220 Descending Indianapolis Center
01:07PM 40.2489 -84.1600 172° South 371 427 13,200 -2,460 Descending Indianapolis Center
01:07PM 40.1847 -84.1503 173° South 369 425 11,800 -2,100 Descending Indianapolis Center
01:08PM 40.1475 -84.1439 173° South 361 415 11,100 -1,800 Descending Indianapolis Center
01:08PM 40.0867 -84.1344 173° South 359 413 10,000 -1,140 Descending Indianapolis Center
01:09PM 40.0522 -84.1286 173° South 342 394 10,000 -120 Level Indianapolis Center
01:09PM 39.9911 -84.1189 173° South 351 404 9,900 -120 Descending Indianapolis Center
01:10PM 39.9542 -84.1236 186° South 325 374 9,900 -1,020 Level Indianapolis Center
01:10PM 39.9078 -84.1386 194° South 311 358 8,900 -1,800 Descending Indianapolis Center
01:11PM 39.8767 -84.1489 194° South 281 323 8,100 -1,980 Descending Indianapolis Center
01:11PM 39.8319 -84.1647 195° South 290 334 6,900 -1,920 Descending Indianapolis Center
01:12PM 39.7861 -84.1806 195° South 280 322 5,800 -1,860 Descending Indianapolis Center
01:12PM 39.7567 -84.1914 196° South 283 326 5,000 -1,260 Descending Indianapolis Center
01:13PM 39.6825 -84.2169 195° South 278 320 3,900 -540 Descending Indianapolis Center
01:14PM 39.6092 -84.2436 196° South 254 292 3,900  Level Indianapolis Center
01:16PM 39.5517 -84.2633 195° South 229 264 4,000  Climbing Indianapolis Center
01:17PM 39.4925 -84.2836 195° South 221 254 3,900  Descending Indianapolis Center
01:18PM 39.4319 -84.3042 195° South 221 254 4,000 -240 Climbing Indianapolis Center
01:19PM 39.3717 -84.3225 193° South 221 254 3,500 -540 Descending Indianapolis Center
01:20PM 39.3108 -84.3356 189° South 220 253 2,900 -480 Descending Indianapolis Center
01:21PM 39.2492 -84.3486 189° South 220 253 2,600 -540 Descending Indianapolis Center
01:23PM 39.1333 -84.3833 193° South 130 150 1,300 -660 Descending Cincinnati TRACON
01:25PM 39.1000 -84.4167 195° South  Level FlightAware Approximate
01:32PM 39.1033 -84.4186 195° South  Level Estimated
01:33PM 39.1000 -84.4167 195° South  Level FlightAware Approximate